Weather History for KONA - April, 2014

Change the Weather History Date:

Saturday, April 5, 2014

  Actual Average Record
Temperature  
Mean Temperature 40 °F -  
Max Temperature 51 °F 57 °F 73 °F (2005)
Min Temperature 28 °F 33 °F 19 °F (2007)
Degree Days  
Heating Degree Days 26    
Moisture  
Dew Point 30 °F    
Average Humidity 75    
Maximum Humidity 100    
Minimum Humidity 47    
Precipitation  
Precipitation 0.00 in - - ()
Sea Level Pressure  
Sea Level Pressure 30.10 in    
Wind  
Wind Speed 2 mph (SW)    
Max Wind Speed 10 mph    
Max Gust Speed 16 mph    
Visibility 10 miles    
Events      
Averages and records for this station are not official NWS values.
T = Trace of Precipitation, MM = Missing Value Source: NWS Daily Summary

Daily Weather History Graph

Daily Weather History Graph

Search for Another Location

Airport or City:

Trip Planner

Search our weather history database for the weather conditions in past years. The results will help you decide how hot, cold, wet, or windy it might be!

Date:

Astronomy

Apr. 05, 2014 Rise Set
Actual Time 6:40 AM CDT 7:38 PM CDT
Civil Twilight 6:11 AM CDT 8:08 PM CDT
Nautical Twilight 5:36 AM CDT 8:43 PM CDT
Astronomical Twilight 4:59 AM CDT 9:20 PM CDT
Moon 10:41 AM CDT (4/5) 12:56 AM CDT (4/5)
Length of Visible Light 13h 56m
Length of Day
12h 57m
Waxing Crescent, 34% of the Moon is Illuminated
Apr 5
Waxing Crescent
Apr 7
First Quarter
Apr 15
Full
Apr 22
Last Quarter
Apr 29
New

Hourly Weather History & Observations

Time (CDT) Temp. Windchill Dew Point Humidity Pressure Visibility Wind Dir Wind Speed Gust Speed Precip Events Conditions
12:00 AM 32.0 °F 28.7 °F 28.4 °F 87% 30.05 in 10.0 mi NW 3.5 mph - N/A   Clear
12:20 AM 32.0 °F - 28.4 °F 87% 30.05 in 10.0 mi Calm Calm - N/A   Clear
12:40 AM 30.2 °F 25.4 °F 26.6 °F 86% 30.06 in 10.0 mi NNW 4.6 mph - N/A   Clear
1:00 AM 30.2 °F - 26.6 °F 86% 30.06 in 10.0 mi Calm Calm - N/A   Clear
1:20 AM 32.0 °F - 28.4 °F 87% 30.06 in 10.0 mi Calm Calm - N/A   Clear
1:40 AM 32.0 °F - 28.4 °F 87% 30.07 in 10.0 mi Calm Calm - N/A   Clear
2:00 AM 32.0 °F - 28.4 °F 87% 30.07 in 10.0 mi Calm Calm - N/A   Clear
2:20 AM 30.2 °F - 26.6 °F 86% 30.08 in 10.0 mi Calm Calm - N/A   Clear
2:40 AM 30.2 °F - 28.4 °F 93% 30.09 in 10.0 mi Calm Calm - N/A   Clear
3:00 AM 30.2 °F - 28.4 °F 93% 30.09 in 10.0 mi Calm Calm - N/A   Clear
3:20 AM 30.2 °F - 28.4 °F 93% 30.09 in 10.0 mi Calm Calm - N/A   Clear
3:40 AM 30.2 °F - 28.4 °F 93% 30.09 in 10.0 mi Calm Calm - N/A   Clear
4:00 AM 30.2 °F - 28.4 °F 93% 30.09 in 10.0 mi Calm Calm - N/A   Clear
4:20 AM 30.2 °F - 28.4 °F 93% 30.10 in 10.0 mi Calm Calm - N/A   Clear
4:40 AM 30.2 °F - 28.4 °F 93% 30.10 in 10.0 mi Calm Calm - N/A   Clear
5:00 AM 30.2 °F - 28.4 °F 93% 30.10 in 10.0 mi Calm Calm - N/A   Clear
5:20 AM 30.2 °F - 28.4 °F 93% 30.10 in 10.0 mi Calm Calm - N/A   Clear
5:40 AM 28.4 °F - 28.4 °F 100% 30.11 in 7.0 mi Calm Calm - N/A   Clear
6:00 AM 28.4 °F - 26.6 °F 93% 30.11 in 5.0 mi Calm Calm - N/A   Clear
6:20 AM 30.2 °F - 30.2 °F 100% 30.12 in 7.0 mi Calm Calm - N/A   Clear
6:40 AM 28.4 °F - 26.6 °F 93% 30.12 in 5.0 mi Calm Calm - N/A   Clear
7:00 AM 28.4 °F - 26.6 °F 93% 30.13 in 7.0 mi Calm Calm - N/A   Clear
7:20 AM 28.4 °F - 28.4 °F 100% 30.14 in 5.0 mi Calm Calm - N/A   Clear
7:40 AM 30.2 °F - 28.4 °F 93% 30.14 in 7.0 mi Calm Calm - N/A   Clear
8:00 AM 30.2 °F - 30.2 °F 100% 30.15 in 4.0 mi Calm Calm - N/A   Clear
8:20 AM 32.0 °F - 30.2 °F 93% 30.16 in 7.0 mi Calm Calm - N/A   Clear
8:40 AM 33.8 °F - 32.0 °F 93% 30.16 in 10.0 mi Calm Calm - N/A   Clear
9:00 AM 33.8 °F - 32.0 °F 93% 30.16 in 10.0 mi Calm Calm - N/A   Clear
9:20 AM 33.8 °F 30.8 °F 30.2 °F 87% 30.16 in 10.0 mi NE 3.5 mph - N/A   Clear
9:40 AM 33.8 °F - 30.2 °F 87% 30.17 in 10.0 mi Calm Calm - N/A   Clear
10:00 AM 35.6 °F - 32.0 °F 87% 30.16 in 10.0 mi Calm Calm - N/A   Clear
10:20 AM 37.4 °F - 32.0 °F 81% 30.16 in 10.0 mi Calm Calm - N/A   Clear
10:40 AM 37.4 °F 34.9 °F 32.0 °F 81% 30.16 in 10.0 mi ESE 3.5 mph - N/A   Clear
11:00 AM 41.0 °F 39.0 °F 32.0 °F 70% 30.16 in 10.0 mi SW 3.5 mph - N/A   Clear
11:20 AM 41.0 °F 35.8 °F 30.2 °F 65% 30.16 in 10.0 mi SW 8.1 mph - N/A   Clear
11:40 AM 42.8 °F 38.6 °F 30.2 °F 61% 30.15 in 10.0 mi SW 6.9 mph - N/A   Clear
12:00 PM 42.8 °F 37.5 °F 30.2 °F 61% 30.15 in 10.0 mi WSW 9.2 mph - N/A   Clear
12:20 PM 42.8 °F 37.0 °F 30.2 °F 61% 30.16 in 10.0 mi SW 10.4 mph - N/A   Clear
12:40 PM 44.6 °F 39.7 °F 32.0 °F 61% 30.15 in 10.0 mi SW 9.2 mph 16.1 mph N/A   Scattered Clouds
1:00 PM 46.4 °F 41.5 °F 32.0 °F 57% 30.15 in 10.0 mi WSW 10.4 mph - N/A   Clear
1:20 PM 46.4 °F 41.5 °F 32.0 °F 57% 30.14 in 10.0 mi SW 10.4 mph - N/A   Clear
1:41 PM 46.4 °F 45.2 °F 32.0 °F 57% 30.14 in 10.0 mi SW 3.5 mph 9.2 mph N/A   Scattered Clouds
2:00 PM 48.2 °F - 32.0 °F 54% 30.14 in 10.0 mi SW 5.8 mph - N/A   Clear
2:20 PM 48.2 °F - 32.0 °F 54% 30.13 in 10.0 mi SSW 8.1 mph - N/A   Clear
2:41 PM 48.2 °F - 32.0 °F 54% 30.13 in 10.0 mi WSW 6.9 mph - N/A   Clear
3:00 PM 48.2 °F - 32.0 °F 54% 30.12 in 10.0 mi WSW 6.9 mph - N/A   Clear
3:20 PM 48.2 °F - 32.0 °F 54% 30.11 in 10.0 mi SSW 6.9 mph - N/A   Clear
3:41 PM 48.2 °F - 32.0 °F 54% 30.10 in 10.0 mi WSW 9.2 mph - N/A   Clear
4:00 PM 48.2 °F - 32.0 °F 54% 30.09 in 10.0 mi WSW 3.5 mph - N/A   Clear
4:20 PM 50.0 °F - 32.0 °F 50% 30.08 in 10.0 mi West 5.8 mph - N/A   Clear
4:41 PM 50.0 °F - 32.0 °F 50% 30.08 in 10.0 mi West 4.6 mph - N/A   Clear
5:00 PM 50.0 °F - 32.0 °F 50% 30.07 in 10.0 mi WSW 8.1 mph - N/A   Clear
5:20 PM 51.8 °F - 32.0 °F 47% 30.07 in 10.0 mi SSW 8.1 mph - N/A   Clear
5:40 PM 50.0 °F - 32.0 °F 50% 30.07 in 10.0 mi SW 6.9 mph - N/A   Clear
6:00 PM 50.0 °F - 32.0 °F 50% 30.06 in 10.0 mi WSW 6.9 mph - N/A   Clear
6:20 PM 50.0 °F - 32.0 °F 50% 30.06 in 10.0 mi SSW 5.8 mph - N/A   Clear
6:40 PM 50.0 °F - 32.0 °F 50% 30.06 in 10.0 mi SW 4.6 mph - N/A   Clear
7:00 PM 48.2 °F - 30.2 °F 50% 30.05 in 10.0 mi SSW 5.8 mph - N/A   Clear
7:20 PM 48.2 °F - 32.0 °F 54% 30.06 in 10.0 mi SSW 3.5 mph - N/A   Clear
7:40 PM 48.2 °F - 32.0 °F 54% 30.06 in 10.0 mi SSW 4.6 mph - N/A   Clear
8:00 PM 48.2 °F - 32.0 °F 54% 30.06 in 10.0 mi SSW 3.5 mph - N/A   Clear
8:20 PM 46.4 °F 45.2 °F 32.0 °F 57% 30.06 in 10.0 mi SSW 3.5 mph - N/A   Clear
8:40 PM 42.8 °F - 30.2 °F 61% 30.06 in 10.0 mi Calm Calm - N/A   Clear
9:00 PM 41.0 °F - 32.0 °F 70% 30.06 in 10.0 mi Calm Calm - N/A   Clear
9:20 PM 35.6 °F 31.7 °F 30.2 °F 81% 30.06 in 10.0 mi SE 4.6 mph - N/A   Clear
9:40 PM 35.6 °F 30.7 °F 32.0 °F 87% 30.05 in 10.0 mi SE 5.8 mph - N/A   Clear
10:00 PM 35.6 °F - 30.2 °F 81% 30.05 in 10.0 mi Calm Calm - N/A   Clear
10:20 PM 35.6 °F 32.8 °F 32.0 °F 87% - 10.0 mi SSE 3.5 mph - N/A   Clear
10:40 PM 35.6 °F - 30.2 °F 81% 30.05 in 10.0 mi Calm Calm - N/A   Clear
11:00 PM 35.6 °F 30.7 °F 32.0 °F 87% 30.04 in 10.0 mi SSE 5.8 mph - N/A   Clear
11:20 PM 35.6 °F 31.7 °F 30.2 °F 81% 30.04 in 10.0 mi SSE 4.6 mph - N/A   Clear
11:40 PM 33.8 °F - 30.2 °F 87% 30.04 in 10.0 mi Calm Calm - N/A   Clear